Regional Weather Roundup
Issued by NWS Jackson, KY

Home | Current Version | Previous Version | Graphics & Text | Print | Product List | Glossary On
Versions: 1 2 3 4 5 6 7 8 9 10 11 12 13 14 15 16 17 18 19 20 21 22 23 24 25 26 27 28 29 30 31 32 33 34 35 36 37 38 39 40 41 42 43 44 45 46 47 48 49 50
000
ASUS43 KJKL 010410
RWRJKL

EAST KENTUCKY HOURLY WEATHER ROUNDUP
NATIONAL WEATHER SERVICE JACKSON KY
1200 AM EDT WED JUL 01 2015

NOTE: "FAIR" INDICATES FEW OR NO CLOUDS BELOW 12,000 FEET WITH
NO SIGNIFICANT WEATHER AND/OR OBSTRUCTIONS TO VISIBILITY.

* THESE REPORTS ARE NOT UNDER NWS QUALITY CONTROL AND MAY NOT
  REPORT WEATHER SUCH AS PRECIPITATION AND FOG.

KYZ079-080-083-085-087-088-110-112-115-119-120-010500
...EASTERN KENTUCKY...

CITY           SKY/WX    TMP DP  RH WIND       PRES   REMARKS
JACKSON        PTCLDY    60  58  92 VRB3      29.95S FOG
LONDON         PTCLDY    70  58  65 SE5       29.97F
SOMERSET*      CLOUDY    68  68 100 CALM      29.97S
MONTICELLO*    CLEAR     67  67 100 CALM      29.99R
MIDDLESBORO*   CLOUDY    66  66 100 CALM      29.99S FOG
HARLAN APT*      N/A     63  59  88 CALM      29.99F
PIKEVILLE APT* CLEAR     61  59  94 S6        29.96S
BIG SANDY*     PTCLDY    61  60  96 SW8       29.95F
MOREHEAD APT*  CLOUDY    61  59  94 S6        29.95S
$$

KYZ035-036-041-042-044-050-067-078-099-010500
...CENTRAL KENTUCKY...

CITY           SKY/WX    TMP DP  RH WIND       PRES   REMARKS
MT STERLING*   CLOUDY    61  61 100 SW3       29.96R
FLEMING/MASON* PTCLDY    61  59  94 S5        29.94R
DANVILLE*      PTCLDY    66  61  82 SW3       29.95F
RICHMOND*      PTCLDY    68  57  68 CALM      29.95S
LEXINGTON      LGT RAIN  64  62  93 SW9       29.93F FOG
FRANKFORT      LGT RAIN  65  62  90 NW9G16    29.92S FOG
$$

KYZ091>093-OHZ055-061-077-WVZ005-015-034-035-042-010500
...SOUTHERN OHIO/WEST VIRGINIA...

CITY           SKY/WX    TMP DP  RH WIND       PRES   REMARKS
COVINGTON      CLOUDY    64  62  93 S7        29.90R FOG
COLUMBUS       PTCLDY    63  61  93 S7        29.86R
DAYTON         PTCLDY    66  64  93 W7        29.89R
WILMINGTON     PTCLDY    63  60  90 SW9       29.88F FOG
HUNTINGTON     MOCLDY    61  61 100 CALM      29.92S FOG
CHARLESTON     CLOUDY    62  59  90 W5        29.92R
PINEVILLE*     MOCLDY    61  61 100 MISG      30.01R
BECKLEY        CLOUDY    59  56  89 S9        29.96F
BLUEFIELD      MOCLDY    61  57  87 S5        30.01F
$$

VAZ002-007-008-TNZ017-027-036-066-071-010500
...SOUTHWEST VIRGINIA/EAST TENNESSEE...

CITY           SKY/WX    TMP DP  RH WIND       PRES   REMARKS
WISE*          CLEAR     59  57  94 S5        30.02F
JONESVILLE*      N/A    N/A N/A N/A MISG        N/A
ABINGDON*      CLOUDY    69  65  86 W3        30.01F
BRISTOL        PTCLDY    68  63  84 SW3       30.00S
KNOXVILLE      TSTM      69  65  86 SW7       29.98S
OAK RIDGE      RAIN      68  67  96 CALM      30.00R VSB 1
CROSSVILLE     CLEAR     70  66  87 W5        30.03S
NASHVILLE      PTCLDY    76  70  82 SW5       29.96S
$$

...KEY TO REMARKS...
VSB - VISIBILITY IN MILES
WCI - WIND CHILL INDEX
HX  - HEAT INDEX

$$



USA.gov is the U.S. government's official web portal to all federal, state and local government web resources and services.